Regional Weather Roundup
Issued by NWS Boston, MA

Home | Current Version | Previous Version | Text Only | Print | Product List | Glossary On
Versions: 1 2 3 4 5 6 7 8 9 10 11 12 13 14 15 16 17 18 19 20 21 22 23 24 25 26 27 28
000
ASUS41 KBOX 281310
RWRBOX

REGIONAL WEATHER ROUNDUP
NATIONAL WEATHER SERVICE TAUNTON MA
800 AM EST TUE FEB 28 2017

NOTE:  "FAIR" INDICATES FEW OR NO CLOUDS BELOW 12,000 FEET WITH NO
SIGNIFICANT WEATHER AND/OR OBSTRUCTIONS TO VISIBILITY.

MAZALL-281400-
EASTERN MASSACHUSETTS

CITY           SKY/WX    TMP DP  RH WIND       PRES   REMARKS
BOSTON         CLOUDY    43  34  70 CALM      30.41S
BEVERLY        CLOUDY    41  34  76 CALM      30.40R
LAWRENCE       CLOUDY    40  30  67 CALM      30.42R
BEDFORD        CLOUDY    39  31  72 CALM      30.39S
BLUE HILL        N/A     39  32  76 S8        30.38R
NORWOOD        CLOUDY    40  36  86 S3        30.41R
MARSHFIELD     CLOUDY    43  36  75 SW3       30.41S
PLYMOUTH       CLOUDY    41  36  82 S6        30.42S
TAUNTON        CLOUDY    42  36  79 CALM      30.41R
NEW BEDFORD    CLOUDY    42  38  85 CALM      30.41F
$$

MAZALL-281400-
CAPE COD AND THE ISLANDS

CITY           SKY/WX    TMP DP  RH WIND       PRES   REMARKS
FALMOUTH       CLOUDY    41  39  93 MISG      30.43F
HYANNIS        CLOUDY    43  40  89 CALM      30.42R
CHATHAM        CLOUDY    44  41  89 SW5       30.45R
PROVINCETOWN   CLOUDY    42  38  85 S5        30.43S
NANTUCKET      CLOUDY    44  41  89 S3        30.44R
MARTHAS VNYRD  SUNNY    N/A N/A N/A SW12      30.42F
$$

MAZALL-281400-
CENTRAL AND WESTERN MASSACHUSETTS

CITY           SKY/WX    TMP DP  RH WIND       PRES   REMARKS
WORCESTER      CLOUDY    37  29  72 W5        30.38R
FITCHBURG      CLOUDY    39  32  76 CALM      30.40R
ORANGE         CLOUDY    32  28  85 CALM      30.38S
SPRINGFIELD    PTSUNNY   37  32  81 CALM      30.38S
WESTFIELD      CLOUDY    37  31  78 CALM      30.39S
NORTH ADAMS    CLOUDY    33  28  81 CALM      30.38R
PITTSFIELD     CLOUDY    33  31  92 CALM      30.34R
$$

RIZALL-281400-
RHODE ISLAND

CITY           SKY/WX    TMP DP  RH WIND       PRES   REMARKS
PROVIDENCE     CLOUDY    42  36  79 CALM      30.41F
NEWPORT        CLOUDY    43  40  89 CALM      30.40F
BLOCK ISLAND   CLOUDY    44  42  93 CALM      30.41S
SMITHFIELD     CLOUDY    40  35  83 CALM      30.40S
WESTERLY       CLOUDY    42  37  82 N3        30.41F
$$

CTZALL-281400-
CONNECTICUT

CITY           SKY/WX    TMP DP  RH WIND       PRES   REMARKS
BRADLEY INTL   CLOUDY    39  33  79 CALM      30.39F
HARTFORD       CLOUDY    40  35  83 CALM      30.40R
BRIDGEPORT     CLOUDY    43  36  76 N7        30.38S
DANBURY        CLOUDY    40  31  70 CALM      30.38S
GROTON         CLOUDY    44  38  79 NE3       30.39F
NEW HAVEN      CLOUDY    41  37  86 NE5       30.38S
CHESTER        FAIR      41  36  81 CALM      30.39R
MERIDEN        CLOUDY    42  35  76 CALM      30.40R
WILLIMANTIC    CLOUDY    36  33  89 NE5       30.41F
OXFORD         CLOUDY    41  28  60 CALM      30.38R
$$

MEZ002-015-021-024-NHZ003-005-008-011-012-014-VTZ005-008-281400-
NORTHERN NEW ENGLAND

CITY           SKY/WX    TMP DP  RH WIND       PRES   REMARKS
PORTLAND ME    CLOUDY    37  23  56 CALM      30.40R
BANGOR ME      CLOUDY    29  25  85 CALM      30.42R
CONCORD NH     CLOUDY    33  25  72 CALM      30.39S
MANCHESTER NH  CLOUDY    35  25  66 CALM      30.38R
NASHUA NH      CLOUDY    37  30  75 CALM      30.40R
PORTSMOUTH NH  CLOUDY    36  28  71 CALM      30.40R
JAFFREY NH     CLOUDY    33  27  78 CALM      30.37R
KEENE NH       CLOUDY    32  26  78 CALM      30.40R
BURLINGTON VT  MOSUNNY   32  27  81 CALM      30.37R
MT. WASHINGTON FOG       16  16 100 W36         N/A  VSB 1/16WCI  -6
$$

NYZ052-076-281400-
EASTERN NEW YORK

CITY           SKY/WX    TMP DP  RH WIND       PRES   REMARKS
ALBANY         CLOUDY    38  29  70 CALM      30.37R
NEW YORK CITY  CLOUDY    44  37  76 NE8       30.37R
$$

ANZALL-281400-
MARINE OBSERVATIONS

STATION/POSITION TIME  TEMP    WIND        PRES    VSBY  WAVE
                       AIR SEA DIR/SP/G                  HT/PER
                 (UTC) (F)     (DEG/KT/KT) (MB)    (MI)  (FT/S)
BOSTON BUOY      1150   42 42  230/  8/ 10 1029.2          1/ 8
BUZZARDS BAY     1200   44     180/  3/  4 1030.7R
NANTUCKET SOUND  1150   42 41  210/  6/  8 1030.6          1
MASS BAY-STELLWA 1204   42 41  230/  8/ 10 1028.8R         2/ 8
ISLE OF SHOALS   1200   39     230/ 10/ 10 1029.3R
S OF BLOCK IS    1255      43                N/A           3/ 5
$$

......................KEY.........................
  SKY/WX - SKY CONDITION/PRESENT WEATHER
  TMP    - TEMPERATURE IN FAHRENHEIT
  DWPT   - DEWPOINT IN FAHRENHEIT
  RH     - RELATIVE HUMIDITY IN PERCENT
  WIND   - DIRECTION AND SPEED IN MPH
  PRES   - MEAN SEA LEVEL PRESSURE IN INCHES OF HG
  WCI    - WIND CHILL INDEX
  VSB    - VISIBILITY IN MILES
  HX     - HEAT INDEX
  TC     - TEMPERATURE IN CELSIUS
  VRB    - VARIABLE WIND DIRECTION
  N/A    - NOT AVAILABLE




USA.gov is the U.S. government's official web portal to all federal, state and local government web resources and services.